Simultaneous Nadir Overpasses (SNOs) Predictions

Prediction of SNOs between AURA and LANDSAT-8 Satellite Orbit:

Table of predicted SNOs for the next 14.0 days since TLE Epoch: 2/1/2025
Index Date (AURA) Time (AURA) Lat,Lon (AURA) SZA (AURA ) Date (LANDSAT-8) Time (LANDSAT-8) Lat,Lon (LANDSAT-8) SZA (LANDSAT-8 ) Distance(km) Time Diff (sec)
1 02/14/2025 20:53:02 -72.51, 49.90 94.88 02/14/2025 20:51:57 -72.52, 47.15 94.84 91.82 65
2 02/14/2025 21:42:26 72.64,-142.69 85.25 02/14/2025 21:41:20 72.63,-145.00 85.25 76.56 66
3 02/14/2025 22:31:52 -72.95, 24.37 94.46 02/14/2025 22:30:42 -72.94, 23.24 94.46 36.72 70
4 02/14/2025 23:21:16 73.09,-168.25 85.68 02/14/2025 23:20:05 73.05,-168.90 85.64 21.65 71
5 02/15/2025 00:10:39 -73.24, -0.88 94.19 02/15/2025 00:09:29 -73.26, -0.85 94.17 2.19 70
6 02/15/2025 01:00:01 73.27, 166.71 85.84 02/15/2025 00:58:54 73.26, 166.80 85.83 3.23 67
7 02/15/2025 01:49:21 -73.26, -25.60 94.19 02/15/2025 01:48:22 -73.26, -25.57 94.19 1.30 59
8 02/15/2025 02:38:42 73.24, 142.10 85.78 02/15/2025 02:37:47 73.26, 142.08 85.80 2.01 55



Historial Predications of SNOs between AURA and LANDSAT-8
